{"data":{"norad_id":48052,"epoch":"2026-09-20T02:40:44.031072Z","epoch_age_seconds":51788,"freshness":"FRESH","line1":"1 48052U 21025L   26263.11162073  .00000193  00000+0  49421-3 0  9994","line2":"2 48052  87.8924 301.3377 0001793  98.1700 261.9632 13.13468538266036","mean_motion":13.13468538,"eccentricity":0.0001793,"inclination_deg":87.8924,"raan_deg":301.3377,"arg_perigee_deg":98.17,"mean_anomaly_deg":261.9632,"bstar":0.00049421,"rev_number":26603,"period_min":109.63338354436,"perigee_km":1208.4105186347,"apogee_km":1211.1315424545,"semimajor_km":7587.9080305446,"source":"CELESTRAK","updated_at":"2026-09-20T09:00:44.585820Z"}}